Погода Фролово

Погода Фролово : погода сейчас, прогноз погоды и архив. Всё, что Вы хотите узнать о погоде Фролово!

Поиск расширенной информации на нашем сайте:

Другие новости

Новости СМИ2

Главная страница сайта

Новости сайта

03.07.2017

Напоминаем, что на нашем специализированном сайте Метеоцентр.Азия вы можете получить высокодетализированные автоматические прогнозы погоды по пунктам России, СНГ и мира в авиационном формате (включающие направление и скорость ветра, видимость, явления погоды, количество и форму облачности, нижнюю и верхнюю границу облачности).


Погода Фролово - сегодня

Время (UTC), дата Ветер
(°,м/с) 
Видим.   Явления Облачность Т
(°С)
Тd
(°С)
f(%) Тe
(°С)
Pmin
(гПа)
dP
(гПа)
Po
(мм)
O2
(г/м3)
Тmin Tmax R s Состояние
почвы
00 12.11.18 080 (В) 5{11}  20000 м    ясно 
-7.5 -13.2 64 -12  1045.1  0.5  772  321           
03 12.11.18 080 (В) 4{11}  20000 м    ясно 
-9 -13.4 70 -13  1046.1  0.9  773  323  -9         
06 12.11.18 090 (В) 5-10{12}  10 км    3/0 верхняя 
[Ci fib]
-8.6 -14 65 -13  1046.7  0.6  773  323  -9.1         
09 12.11.18 090 (В) 7-13{13}  10 км    6/0 верхняя 
[Cc]
-4.2 -17.9 34 -9  1046  -0.4  773  318           
12 12.11.18 080 (В) 5-10{15}  10 км    8/0 верхняя 
[Cs]
-3.8 -18.2 32 -7  1045.5  -0.5  772  317           
15 12.11.18 070 (В) 5-10  20000 м    4/0 верхняя 
[Ci fib]
-6 -15.2 48 -10  1045.7  0.1  772  320    -3.3       
18 12.11.18 080 (В) 5{11}  20000 м    ясно 
-7.2 -15.4 52 -11  1045.6  -0.2  772  321           
21 12.11.18 080 (В) 5{11}  20000 м    4/0 средняя 
[Ac und]
-7.6 -15.3 54 -12  1045.4  -0.3  772  321           
00 13.11.18 080 (В) 5{11}  20000 м    8/0 средняя 
[Ac und]
-7.7 -14.9 56 -12  1044.2  -1.1  771  321           
03 13.11.18 080 (В) 20000 м    8/0 средняя 
[Ac As]
-8.4 -15.2 58 -12  1044  -0.3  771  322  -8.4         
06 13.11.18 080 (В) 6-11{11}  10 км    3/0 средняя 
[Ac und]
-6.9 -15.2 52 -12  1044.2  0.3  771  320  -8.7         
12 13.11.18 080 (В) 5-11{14}  10 км    ясно 
-1.7 -16.2 32 -5  1042.9  -0.9  771  314           
15 13.11.18 080 (В) 4{11}  20000 м    ясно 
-4.6 -14.4 46 -8  1043.1  771  317    -1.2       
18 13.11.18 080 (В) 20000 м    ясно 
-6 -13.4 56 -10  1042.5  -0.7  770  318           
21 13.11.18 090 (В) 20000 м    ясно 
-7.6 -13.5 63 -10  1042.2  -0.4  770  320           
00 14.11.18 090 (В) 20000 м    ясно 
-9 -14 67 -13  1041.1  -1.1  769  322           
03 14.11.18 080 (В) 20000 м    ясно 
-10.4 -14.5 72 -12  1040.2  -1  768  323  -10.4         
06 14.11.18 110 (В) 10 км    ясно 
-7.1 -14 58 -10  1039.3  -0.8  768  319  -10.4         
09 14.11.18 130 (ЮВ) 10 км    ясно 
+0.5 -16.3 27 -2  1037.6  -1.2  767  310           
12 14.11.18 090 (В) 10 км    ясно 
+0.9 -16 27 -1  1036.4  -1.2  766  309           
15 14.11.18 090 (В) 20000 м    ясно 
-2.3 -15.8 35 -5  1036.1  -0.4  766  312    +1.6       
18 14.11.18 090 (В) 20000 м    ясно 
-4.5 -15.9 41 -8  1036  -0.3  765  315           
21 14.11.18 080 (В) 20000 м    ясно 
-6.1 -15.6 47 -9  1036.2  0.1  765  317           
00 15.11.18 070 (В) 20000 м    ясно 
-8.6 -14.6 62 -11  1035.7  -0.6  765  320           
03 15.11.18 090 (В) 20000 м    ясно 
-9.4 -14.9 64 -11  1035.8  765  321  -9.7         
Время (UTC), дата Ветер
(°,м/с) 
Видим.   Явления Облачность Т
(°С)
Тd
(°С)
f(%) Тe
(°С)
Pmin
(гПа)
dP
(гПа)
Po
(мм)
O2
(г/м3)
Тmin Tmax R s Состояние
почвы

Для получения пояснительной информации подведите курсор к названию столбца.

ПОГОДА Фролово - архив

Всё, что Вы хотите узнать о погоде Фролово - удобно и подробно!

Выберите нужную дату (начиная с 1 января 2015* года) и нажмите кнопку "Найти".
Будут отображены архивные сводки погоды по пункту Фролово, начиная с указанной даты.


Отображать данные в формате CSV (для использования в таблицах Excel)


Внимание! Наш архив погоды предназначен исключительно для личного некоммерческого использования в познавательных целях. Если Вам необходимы официальные справки о состоянии погоды (для производственных, юридических, коммерческих и т.п. целей), обращайтесь в органы Росгидромета.

*Примечание: данная дата относится к архиву по метеостанциям СССР (Россия, СНГ, Балтия).
Архив по метеостанциям Зарубежной Европы и Азии (кроме Китая) хранится 10 дней, по другим регионам земного шара (Китай, Африка, Америка, Австралия, Океания) - 1 день.

Фролово - район местоположения метеостанции


Название, широта, долгота, высота метеостанции:
Фролово 49.8°ш. 43.7°д. 119 м над ур. моря [Российская Федерация]

Дополнительная информация

В oтличие oт бoльшинства пoгoдных сайтoв мы публикуем пoдрoбную метеoинфoрмацию в детальнoм прoфессиoнальнoм фoрмате.

Характеристики температуры и влажнoсти вoздуха измеряются на высoте 2 м в тени вдали oт зданий и деревьев.
Скoрoсть ветра измеряется на высoте 10 м (на урoвне рoста челoвека скoрoсть ветра ниже в 1.5-2 раза). Если метеoстанция нахoдится в гoрoде или в лесу, тo скoрoсть ветра занижена на 2-4 м/с пo сравнению с oткрытым местoм. Скoрoсть ветра над акватoриями крупных рек и oзёр, а также на вершинах хoлмoв на 2-5 м/с выше, чем в oбычных услoвиях.
Атмoсфернoе давление в разных тoчках местнoсти мoжет значительнo oтличаться oт давления на метеoстанции, в зависимoсти oт услoвий рельефа (при пoдъёме на 10 м давление пoнижается примернo на 1 мм рт.ст.).